Location: Helensbirgh
(56.0153°N, 4.7348°W)
Time: 07:22:06
(UTC+00:00)

Envisat - Pass Details

Date: 16 October 2019
Orbit: 764 x 766 km, 98.1° (Epoch: 13 November)

Event Time Altitude Azimuth Distance (km) Brightness Sun altitude
Rises 21:01:45 0° 223° (SW) 3,228 6.5 -23.6°
Reaches altitude 10° 21:05:22 10° 250° (WSW) 2,308 6.1 -24.1°
Maximum altitude 21:07:45 13° 278° (W) 2,091 6.2 -24.4°
Drops below altitude 10° 21:10:10 10° 306° (NW) 2,315 6.5 -24.7°
Sets 21:13:49 0° 334° (NNW) 3,248 7.0 -25.2°
